Location: Theydon Bois
(51.6750°N, 0.1050°E)
Time: 23:07:11
(UTC+00:00)

ISS - Visible Passes

Search period start: 21 February 2018 00:00
Search period end: 03 March 2018 00:00
Orbit: 403 x 407 km, 51.6° (Epoch: 22 February)

Date Brightness Start Highest point End Pass type
(mag) Time Alt. Az. Time Alt. Az. Time Alt. Az.
27 Feb -1.0 06:07:31 10° S 06:09:47 17° SE 06:12:03 10° E visible
28 Feb -0.8 05:16:45 10° SSE 05:17:46 11° SE 05:18:47 10° ESE visible
01 Mar -2.1 05:58:32 10° SSW 06:01:26 30° SSE 06:04:21 10° E visible
02 Mar -1.5 05:06:55 11° SSW 05:09:19 20° SE 05:11:49 10° E visible
